WetterOnline ( http://www.wetteronline.de )

Wetter aktuell Darß/Zingst

Aktuelles Wetter: Barth (7m)

6-stündlich | Neueste Meldungen
Ortszeit Temperatur Wetter
Di, 21.08. 8:00 15.2° C wolkenlos
Di, 21.08. 2:00 13.5° C wolkig
Mo, 20.08. 20:00 18.5° C wolkig
Mo, 20.08. 14:00 21.6° C wolkig
Mo, 20.08. 8:00 19.4° C bedeckt
Mo, 20.08. 2:00 14.3° C wolkenlos
So, 19.08. 20:00 20.5° C wolkig
So, 19.08. 14:00 21.9° C leicht bewölkt
Ortszeit Temperatur Wetter
Di, 21.08. 10:00 17.4° C bedeckt
Di, 21.08. 9:50 17.4° C bedeckt
Di, 21.08. 9:40 16.7° C bewölkt
Di, 21.08. 9:30 17.7° C bewölkt
Di, 21.08. 9:20 17.7° C bewölkt
Di, 21.08. 9:10 17.0° C bewölkt
Di, 21.08. 9:00 16.5° C wolkig
Di, 21.08. 8:30 16.3° C fast wolkenlos
Di, 21.08. 8:00 15.2° C wolkenlos
Di, 21.08. 7:30 12.8° C wolkenlos
Di, 21.08. 7:00 10.9° C leicht bewölkt
Ortszeit Relative Feuchte Sichtweite
Di, 21.08. 8:00 77% 28 km
Di, 21.08. 2:00 79% 35 km
Mo, 20.08. 20:00 67% 30 km
Mo, 20.08. 14:00 70% 26 km
Mo, 20.08. 8:00 81% 20 km
Mo, 20.08. 2:00 94% 4.1 km
So, 19.08. 20:00 65% 13 km
So, 19.08. 14:00 57% 21 km
Ortszeit Relative Feuchte Sichtweite
Di, 21.08. 10:00 66% 35 km
Di, 21.08. 9:50 66% -
Di, 21.08. 9:40 66% -
Di, 21.08. 9:30 69% 28 km
Di, 21.08. 9:20 69% -
Di, 21.08. 9:10 68% -
Di, 21.08. 9:00 69% 18 km
Di, 21.08. 8:30 73% 28 km
Di, 21.08. 8:00 77% 28 km
Di, 21.08. 7:30 88% 28 km
Di, 21.08. 7:00 92% 25 km
Ortszeit Niederschlagsmenge Niederschlagsart
Di, 21.08. 8:00 0.0 l/m2 in 12 Std. -
Di, 21.08. 2:00 0.0 l/m2 in 6 Std. -
Mo, 20.08. 20:00 2 l/m2 in 12 Std. -
Mo, 20.08. 14:00 2 l/m2 in 6 Std. Regen
Mo, 20.08. 8:00 0.1 l/m2 in 12 Std. Regen
Mo, 20.08. 2:00 0.0 l/m2 in 6 Std. -
So, 19.08. 20:00 0.0 l/m2 in 12 Std. -
So, 19.08. 14:00 0.0 l/m2 in 6 Std. -
Ortszeit Niederschlagsmenge Niederschlagsart
Di, 21.08. 10:00 0.0 l/m2 in 1 Std. -
Di, 21.08. 9:50 keine Meldung -
Di, 21.08. 9:40 keine Meldung -
Di, 21.08. 9:30 0.0 l/m2 in 1 Std. -
Di, 21.08. 9:20 keine Meldung -
Di, 21.08. 9:10 keine Meldung -
Di, 21.08. 9:00 0.0 l/m2 in 1 Std. -
Di, 21.08. 8:30 0.0 l/m2 in 1 Std. -
Di, 21.08. 8:00 0.0 l/m2 in 1 Std. -
Di, 21.08. 7:30 0.0 l/m2 in 1 Std. -
Di, 21.08. 7:00 0.0 l/m2 in 1 Std. -
Ortszeit Stärke Spitze Richtung
km/h Bft. km/h Grad Sektor
Di, 21.08. 8:00 9 2 15 290° W
Di, 21.08. 2:00 9 2 31 280° W
Mo, 20.08. 20:00 20 4 50 280° W
Mo, 20.08. 14:00 26 4 41 270° W
Mo, 20.08. 8:00 19 3 35 240° SW
Mo, 20.08. 2:00 4 1 11 250° W
So, 19.08. 20:00 4 1 32 20° N
So, 19.08. 14:00 22 4 41 280° W
Ortszeit Stärke Spitze Richtung
km/h Bft. km/h Grad Sektor
Di, 21.08. 10:00 13 3 24 310° NW
Di, 21.08. 9:50 13 3 - 310° NW
Di, 21.08. 9:40 14 3 - 290° W
Di, 21.08. 9:30 14 3 25 320° NW
Di, 21.08. 9:20 14 3 - 320° NW
Di, 21.08. 9:10 14 3 - 320° NW
Di, 21.08. 9:00 17 3 24 310° NW
Di, 21.08. 8:30 11 2 22 300° NW
Di, 21.08. 8:00 9 2 15 290° W
Di, 21.08. 7:30 4 1 11 270° W
Di, 21.08. 7:00 7 2 11 270° W
Ortszeit Untergrenze Bedeckung Gattung
total tief tief mittel hoch
Di, 21.08. 8:00 1500 m 0/8 0/8 - - -
Di, 21.08. 2:00 9000 m 8/8 0/8 - - -
Mo, 20.08. 20:00 9000 m 8/8 0/8 - - -
Mo, 20.08. 14:00 540 m 5/8 5/8 - - -
Mo, 20.08. 8:00 480 m 8/8 8/8 - - -
Mo, 20.08. 2:00 - 0/8 0/8 - - -
So, 19.08. 20:00 6900 m 7/8 4/8 - - -
So, 19.08. 14:00 1140 m 8/8 1/8 - - -
Ortszeit Bedeckungsgrad in Achtel und Wolkenuntergrenze
Di, 21.08. 10:00 8
Di, 21.08. 9:50 9 9 9
Di, 21.08. 9:40 6(720m) 7(900m)
Di, 21.08. 9:30 5(720m) 7(930m) 7(1500m)
Di, 21.08. 9:20 5(720m) 7(930m) 7(1500m)
Di, 21.08. 9:10 4(720m) 6(870m) 7(1500m)
Di, 21.08. 9:00 3(690m) 5(1320m) 6(1500m)
Di, 21.08. 8:30 1(1500m)
Di, 21.08. 8:00 1(1500m)
Di, 21.08. 7:30 1(3600m)
Di, 21.08. 7:00 3(3600m)
Ortszeit Luftdruck NN (hPa) Tendenz (hPa in 3 Std.)
Di, 21.08. 8:00 1021 + 1,1
Di, 21.08. 2:00 1018 + 0,8
Mo, 20.08. 20:00 1017 + 0,6
Mo, 20.08. 14:00 1015 + 1,1
Mo, 20.08. 8:00 1013 - 0,5
Mo, 20.08. 2:00 1015 - 0,9
So, 19.08. 20:00 1016 - 1,5
So, 19.08. 14:00 1019 - 0,9
Ortszeit Luftdruck NN (hPa) Tendenz (hPa in 3 Std.)
Di, 21.08. 10:00 1022 + 1,6
Di, 21.08. 9:50 1022 keine Meldung
Di, 21.08. 9:40 1022 keine Meldung
Di, 21.08. 9:30 1021 + 1,4
Di, 21.08. 9:20 1021 keine Meldung
Di, 21.08. 9:10 1021 keine Meldung
Di, 21.08. 9:00 1021 + 1,4
Di, 21.08. 8:30 1021 + 1,5
Di, 21.08. 8:00 1021 + 1,1
Di, 21.08. 7:30 1020 + 0,7
Di, 21.08. 7:00 1020 + 0,6
Ortszeit Schneehöhe (cm)
Di, 21.08. 8:00 -
Di, 21.08. 2:00 -
Mo, 20.08. 20:00 -
Mo, 20.08. 14:00 -
Mo, 20.08. 8:00 -
Mo, 20.08. 2:00 -
So, 19.08. 20:00 -
So, 19.08. 14:00 -
Ortszeit Schneehöhe (cm)
Di, 21.08. 10:00 -
Di, 21.08. 9:50 -
Di, 21.08. 9:40 -
Di, 21.08. 9:30 -
Di, 21.08. 9:20 -
Di, 21.08. 9:10 -
Di, 21.08. 9:00 -
Di, 21.08. 8:30 -
Di, 21.08. 8:00 -
Di, 21.08. 7:30 -
Di, 21.08. 7:00 -
Link zu dieser Seite / Seite empfehlen

Das Wetter in ...